Location: Advent Pentecost Church
(32.7757°N, 96.7408°W)
Time: 03:12:42
(UTC+00:00)

Tiangong - Visible Passes

Search period start: 21 October 2021 00:00
Search period end: 31 October 2021 00:00
Orbit: 382 x 384 km, 41.5° (Epoch: 20 October)

Date Brightness Start Highest point End Pass type
(mag) Time Alt. Az. Time Alt. Az. Time Alt. Az.
21 Oct 3.1 01:12:38 10° WNW 01:15:01 19° N 01:15:26 19° N visible
22 Oct 2.9 00:12:00 10° WNW 00:14:39 24° NNW 00:17:20 10° NE visible
22 Oct 4.2 01:50:00 10° NW 01:50:17 11° NW 01:50:17 11° NW visible
23 Oct 3.3 00:49:32 10° NW 00:51:42 17° N 00:52:55 14° NNE visible
24 Oct 3.6 01:26:29 10° NW 01:27:42 16° NNW 01:27:42 16° NNW visible
25 Oct 3.2 00:26:10 10° NW 00:28:18 17° N 00:30:19 11° NE visible
26 Oct 2.8 01:02:44 10° NW 01:05:07 22° N 01:05:07 22° N visible
27 Oct 3.7 01:38:59 10° NW 01:39:57 18° NW 01:39:57 18° NW visible
28 Oct 2.2 00:38:49 10° NW 00:41:40 30° NNE 00:42:40 24° NE visible
29 Oct 1.6 01:15:05 10° WNW 01:17:39 55° WNW 01:17:39 55° WNW visible
30 Oct 1.4 00:14:48 10° NW 00:17:52 48° NNE 00:20:34 13° E visible
30 Oct 4.3 01:52:01 10° W 01:52:46 14° W 01:52:46 14° W visible
